FW6724 Weather Reports


Display with metric or nautical units.
time (UTC)temp
F
wind
direction
speed
MPH
gust
MPH
rain 1hr
in
rain 24hr
in
rain mn
in
humidity
%
barometer
mb
20260904211539 79 0 0.0 4.0 0.00 0.00 0.00 65 1020.8
20260904210045 80 70 2.0 5.0 0.00 0.00 0.00 64 1020.8
20260904204549 80 104 1.0 7.0 0.00 0.00 0.00 64 1020.8
20260904203050 81 111 2.0 7.0 0.00 0.00 0.00 63 1020.7
20260904201543 81 88 2.0 6.0 0.00 0.00 0.00 62 1020.8
20260904200046 81 90 1.0 4.0 0.00 0.00 0.00 61 1020.7
20260904194550 82 85 3.0 8.0 0.00 0.00 0.00 60 1020.4
20260904193043 83 360 1.0 7.0 0.00 0.00 0.00 59 1020.3
20260904191546 83 109 2.0 4.0 0.00 0.00 0.00 57 1020.1
20260904190050 84 113 1.0 7.0 0.00 0.00 0.00 55 1020.1
20260904184549 84 140 3.0 7.0 0.00 0.00 0.00 53 1019.9
20260904183051 84 140 2.0 9.0 0.00 0.00 0.00 52 1019.8
20260904181539 85 115 4.0 9.0 0.00 0.00 0.00 51 1019.6
20260904180048 85 140 4.0 10.0 0.00 0.00 0.00 49 1019.5
20260904174545 86 126 6.0 9.0 0.00 0.00 0.00 47 1019.4
20260904173046 86 131 4.0 10.0 0.00 0.00 0.00 47 1019.4
20260904171545 87 121 7.0 11.0 0.00 0.00 0.00 47 1019.4
20260904170046 88 161 6.0 11.0 0.00 0.00 0.00 45 1019.2
20260904164541 88 116 7.0 13.0 0.00 0.00 0.00 42 1019.4
20260904163043 89 111 5.0 13.0 0.00 0.00 0.00 41 1019.4
20260904161543 89 165 8.0 15.0 0.00 0.00 0.00 42 1019.4
20260904160040 90 128 8.0 13.0 0.00 0.00 0.00 45 1019.3
20260904154541 90 137 9.0 15.0 0.00 0.00 0.00 45 1019.3
20260904153051 91 124 7.0 14.0 0.00 0.00 0.00 45 1019.3
20260904151542 91 119 9.0 18.0 0.00 0.00 0.00 45 1019.2
20260904150051 91 131 8.0 14.0 0.00 0.00 0.00 45 1019.2
20260904144558 92 119 7.0 14.0 0.00 0.00 0.00 44 1019.3
20260904143050 93 99 9.0 15.0 0.00 0.00 0.00 42 1019.2
20260904141540 93 108 7.0 14.0 0.00 0.00 0.00 42 1019.1
20260904140055 94 169 7.0 15.0 0.00 0.00 0.00 42 1019.3
20260904134549 93 119 7.0 12.0 0.00 0.00 0.00 44 1019.4
20260904133044 93 69 6.0 16.0 0.00 0.00 0.00 44 1019.4
20260904131545 93 93 7.0 14.0 0.00 0.00 0.00 43 1019.7
20260904130046 94 90 6.0 12.0 0.00 0.00 0.00 41 1019.8
20260904124545 94 134 4.0 12.0 0.00 0.00 0.00 43 1019.8
20260904123045 93 109 6.0 12.0 0.00 0.00 0.00 43 1020.0
20260904121542 94 82 6.0 13.0 0.00 0.00 0.00 42 1020.1
20260904120049 94 129 7.0 12.0 0.00 0.00 0.00 40 1020.3
20260904114544 94 87 4.0 10.0 0.00 0.00 0.00 36 1020.4
20260904113047 94 156 3.0 11.0 0.00 0.00 0.00 31 1020.6
20260904111543 93 178 6.0 12.0 0.00 0.00 0.00 33 1020.7
20260904110040 93 137 3.0 9.0 0.00 0.00 0.00 31 1020.9
20260904104544 91 64 2.0 9.0 0.00 0.00 0.00 34 1021.0
20260904103046 90 73 2.0 7.0 0.00 0.00 0.00 41 1021.3
20260904101540 89 140 1.0 5.0 0.00 0.00 0.00 44 1021.5
20260904100043 89 131 2.0 7.0 0.00 0.00 0.00 43 1021.6
20260904094550 87 0 2.0 8.0 0.00 0.00 0.00 45 1021.6
20260904093047 87 304 1.0 5.0 0.00 0.00 0.00 45 1021.6
20260904091542 86 294 2.0 7.0 0.00 0.00 0.00 49 1021.7
20260904090040 84 288 3.0 7.0 0.00 0.00 0.00 50 1021.8
20260904084549 82 232 3.0 8.0 0.00 0.00 0.00 55 1021.8
20260904083043 81 271 3.0 8.0 0.00 0.00 0.00 59 1021.8
20260904081543 79 300 4.0 10.0 0.00 0.00 0.00 61 1022.0
20260904080054 79 247 4.0 9.0 0.00 0.00 0.00 65 1022.0
20260904074547 78 336 2.0 5.0 0.00 0.00 0.00 67 1022.1
20260904073054 77 317 1.0 4.0 0.00 0.00 0.00 67 1022.2
20260904071540 76 0 0.0 0.0 0.00 0.00 0.00 69 1022.2
20260904070048 75 0 0.0 3.0 0.00 0.00 0.00 69 1022.0
20260904064549 75 0 1.0 5.0 0.00 0.00 0.00 69 1021.9
20260904063056 75 142 1.0 4.0 0.00 0.00 0.00 70 1021.8
20260904061540 74 0 0.0 0.0 0.00 0.00 0.00 70 1021.7
20260904054551 73 304 2.0 4.0 0.00 0.00 0.00 70 1021.5
20260904053044 73 0 0.0 0.0 0.00 0.00 0.00 70 1021.4
20260904051542 74 0 0.0 0.0 0.00 0.00 0.00 70 1021.3
20260904050048 74 0 0.0 0.0 0.00 0.00 0.00 71 1021.3
20260904044545 74 0 0.0 0.0 0.00 0.00 0.00 71 1021.4
20260904043042 74 289 1.0 3.0 0.00 0.00 0.00 71 1021.4
20260904041541 74 287 3.0 7.0 0.00 0.00 0.00 71 1021.4
20260904040043 75 0 0.0 0.0 0.00 0.00 0.00 71 1021.4
20260904034548 75 0 0.0 0.0 0.00 0.00 0.00 71 1021.4
20260904033042 76 0 0.0 0.0 0.00 0.00 0.00 71 1021.4
20260904031541 76 288 1.0 4.0 0.00 0.00 0.00 71 1021.5
20260904030045 76 0 0.0 0.0 0.00 0.00 0.00 71 1021.6
20260904024542 77 0 0.0 0.0 0.00 0.00 0.00 71 1021.6
20260904023044 77 0 0.0 3.0 0.00 0.00 0.00 71 1021.8
20260904021551 77 0 0.0 0.0 0.00 0.00 0.00 71 1021.9
20260904020046 78 0 0.0 0.0 0.00 0.00 0.00 71 1021.9
20260904014551 78 0 0.0 0.0 0.00 0.00 0.00 71 1022.1
20260904013104 78 0 0.0 0.0 0.00 0.00 0.00 71 1022.2
20260904011542 78 0 0.0 0.0 0.00 0.00 0.00 71 1022.3
20260904010040 78 0 0.0 0.0 0.00 0.00 0.00 71 1022.5
20260904004545 78 0 0.0 0.0 0.00 0.00 0.00 71 1022.5
20260904003044 78 0 0.0 0.0 0.00 0.00 0.00 71 1022.5
20260904001556 78 0 0.0 0.0 0.00 0.00 0.00 71 1022.7
20260904000040 79 0 0.0 0.0 0.00 0.00 0.00 71 1022.6
20260903234545 79 0 0.0 0.0 0.00 0.00 0.00 70 1022.6
20260903233045 78 0 0.0 0.0 0.00 0.00 0.00 70 1022.6
20260903231543 78 0 0.0 0.0 0.00 0.00 0.00 70 1022.6
20260903230039 79 0 0.0 0.0 0.00 0.00 0.00 69 1022.5
20260903224548 79 92 0.0 3.0 0.00 0.00 0.00 69 1022.6
20260903223045 79 0 0.0 3.0 0.00 0.00 0.00 69 1022.5
20260903221541 79 0 2.0 4.0 0.00 0.00 0.00 68 1022.4
20260903220041 79 125 1.0 4.0 0.00 0.00 0.00 67 1022.4
20260903214543 79 0 0.0 4.0 0.00 0.00 0.00 67 1022.4
20260903213051 80 0 0.0 3.0 0.00 0.00 0.00 66 1022.3